| time (UTC) | temp F | wind direction | speed MPH | gust MPH | rain 1hr in | rain 24hr in | rain mn in | humidity % | barometer mb |
| 20260509152504 | 57 | 338 | 2.0 | 12.0 | 0.00 | 0.00 | 0.00 | 57 | 1006.5 |
| 20260509152006 | 57 | 333 | 1.0 | 12.0 | 0.00 | 0.00 | 0.00 | 56 | 1006.3 |
| 20260509151512 | 57 | 5 | 3.0 | 13.0 | 0.00 | 0.00 | 0.00 | 55 | 1006.2 |
| 20260509151005 | 57 | 334 | 3.0 | 13.0 | 0.00 | 0.00 | 0.00 | 57 | 1006.2 |
| 20260509150509 | 57 | 360 | 3.0 | 12.0 | 0.00 | 0.00 | 0.00 | 59 | 1006.0 |
| 20260509150029 | 57 | 11 | 2.0 | 12.0 | 0.00 | 0.00 | 0.00 | 59 | 1005.9 |
| 20260509145508 | 57 | 327 | 4.0 | 12.0 | 0.00 | 0.00 | 0.00 | 59 | 1005.8 |
| 20260509145008 | 57 | 332 | 5.0 | 13.0 | 0.00 | 0.00 | 0.00 | 62 | 1005.6 |
| 20260509144530 | 57 | 327 | 4.0 | 13.0 | 0.00 | 0.00 | 0.00 | 61 | 1005.5 |
| 20260509144009 | 57 | 336 | 4.0 | 12.0 | 0.00 | 0.00 | 0.00 | 63 | 1005.4 |
| 20260509143504 | 57 | 286 | 4.0 | 13.0 | 0.00 | 0.00 | 0.00 | 62 | 1005.4 |
| 20260509143016 | 57 | 360 | 5.0 | 13.0 | 0.00 | 0.00 | 0.00 | 62 | 1005.3 |
| 20260509142508 | 57 | 259 | 4.0 | 14.0 | 0.00 | 0.00 | 0.00 | 60 | 1005.2 |
| 20260509142008 | 57 | 297 | 2.0 | 14.0 | 0.00 | 0.00 | 0.00 | 60 | 1005.1 |
| 20260509141513 | 57 | 15 | 3.0 | 13.0 | 0.00 | 0.00 | 0.00 | 60 | 1005.1 |
| 20260509141009 | 57 | 69 | 3.0 | 11.0 | 0.00 | 0.00 | 0.00 | 61 | 1005.0 |
| 20260509140508 | 57 | 352 | 2.0 | 12.0 | 0.00 | 0.00 | 0.00 | 62 | 1004.9 |
| 20260509140009 | 56 | 340 | 4.0 | 14.0 | 0.00 | 0.00 | 0.00 | 63 | 1004.9 |
| 20260509135506 | 55 | 230 | 6.0 | 14.0 | 0.00 | 0.00 | 0.00 | 63 | 1004.8 |
| 20260509135013 | 55 | 5 | 3.0 | 12.0 | 0.00 | 0.00 | 0.00 | 64 | 1004.7 |
| 20260509134520 | 55 | 321 | 3.0 | 10.0 | 0.00 | 0.00 | 0.00 | 64 | 1004.6 |
| 20260509134012 | 54 | 287 | 3.0 | 11.0 | 0.00 | 0.00 | 0.00 | 65 | 1004.6 |
| 20260509133507 | 54 | 295 | 3.0 | 14.0 | 0.00 | 0.00 | 0.00 | 65 | 1004.6 |
| 20260509133022 | 53 | 306 | 5.0 | 14.0 | 0.00 | 0.00 | 0.00 | 65 | 1004.6 |
| 20260509132507 | 53 | 295 | 2.0 | 9.0 | 0.00 | 0.00 | 0.00 | 65 | 1004.4 |
| 20260509132010 | 52 | 152 | 1.0 | 9.0 | 0.00 | 0.00 | 0.00 | 64 | 1004.4 |
| 20260509131527 | 51 | 309 | 2.0 | 5.0 | 0.00 | 0.00 | 0.00 | 63 | 1004.4 |
| 20260509131009 | 51 | 360 | 2.0 | 5.0 | 0.00 | 0.00 | 0.00 | 61 | 1004.3 |
| 20260509130504 | 51 | 242 | 1.0 | 3.0 | 0.00 | 0.00 | 0.00 | 61 | 1004.3 |
| 20260509130016 | 50 | 342 | 0.0 | 3.0 | 0.00 | 0.00 | 0.00 | 60 | 1004.2 |
| 20260509125507 | 50 | 140 | 0.0 | 2.0 | 0.00 | 0.00 | 0.00 | 59 | 1004.3 |
| 20260509125011 | 50 | 350 | 0.0 | 2.0 | 0.00 | 0.00 | 0.00 | 59 | 1004.2 |
| 20260509124520 | 50 | 308 | 0.0 | 2.0 | 0.00 | 0.00 | 0.00 | 58 | 1004.0 |
| 20260509124006 | 50 | 195 | 0.0 | 2.0 | 0.00 | 0.00 | 0.00 | 57 | 1004.0 |
| 20260509123507 | 50 | 195 | 0.0 | 2.0 | 0.00 | 0.00 | 0.00 | 57 | 1003.9 |
| 20260509123014 | 49 | 196 | 0.0 | 1.0 | 0.00 | 0.00 | 0.00 | 56 | 1003.9 |
| 20260509122510 | 49 | 196 | 0.0 | 1.0 | 0.00 | 0.00 | 0.00 | 55 | 1003.9 |
| 20260509122009 | 49 | 196 | 0.0 | 2.0 | 0.00 | 0.00 | 0.00 | 55 | 1004.0 |
| 20260509121528 | 49 | 196 | 0.0 | 2.0 | 0.00 | 0.00 | 0.00 | 55 | 1004.0 |
| 20260509121007 | 49 | 213 | 0.0 | 4.0 | 0.00 | 0.00 | 0.00 | 55 | 1003.9 |
| 20260509120507 | 49 | 204 | 0.0 | 4.0 | 0.00 | 0.00 | 0.00 | 55 | 1003.9 |
| 20260509120026 | 49 | 226 | 0.0 | 1.0 | 0.00 | 0.00 | 0.00 | 55 | 1003.9 |
| 20260509115507 | 49 | 226 | 0.0 | 2.0 | 0.00 | 0.00 | 0.00 | 55 | 1003.6 |
| 20260509115010 | 49 | 213 | 0.0 | 3.0 | 0.00 | 0.00 | 0.00 | 55 | 1003.4 |
| 20260509114528 | 48 | 213 | 0.0 | 7.0 | 0.00 | 0.00 | 0.00 | 55 | 1003.3 |
| 20260509114008 | 48 | 294 | 1.0 | 7.0 | 0.00 | 0.00 | 0.00 | 55 | 1003.7 |
| 20260509113507 | 48 | 338 | 1.0 | 5.0 | 0.00 | 0.00 | 0.00 | 56 | 1003.7 |
| 20260509113019 | 48 | 315 | 0.0 | 3.0 | 0.00 | 0.00 | 0.00 | 55 | 1003.5 |
| 20260509112506 | 47 | 38 | 0.0 | 4.0 | 0.00 | 0.00 | 0.00 | 56 | 1003.5 |
| 20260509112011 | 47 | 345 | 0.0 | 4.0 | 0.00 | 0.00 | 0.00 | 56 | 1003.5 |
| 20260509111521 | 47 | 312 | 0.0 | 5.0 | 0.00 | 0.00 | 0.00 | 57 | 1003.4 |
| 20260509111010 | 47 | 257 | 1.0 | 5.0 | 0.00 | 0.00 | 0.00 | 57 | 1003.3 |
| 20260509110508 | 46 | 59 | 0.0 | 1.0 | 0.00 | 0.00 | 0.00 | 58 | 1003.3 |
| 20260509110020 | 46 | 9 | 0.0 | 3.0 | 0.00 | 0.00 | 0.00 | 58 | 1003.2 |
| 20260509105508 | 46 | 9 | 0.0 | 5.0 | 0.00 | 0.00 | 0.00 | 59 | 1003.1 |
| 20260509105010 | 45 | 333 | 1.0 | 5.0 | 0.00 | 0.00 | 0.00 | 60 | 1003.0 |
| 20260509104527 | 45 | 284 | 1.0 | 4.0 | 0.00 | 0.00 | 0.00 | 60 | 1003.1 |
| 20260509104006 | 45 | 52 | 1.0 | 8.0 | 0.00 | 0.00 | 0.00 | 61 | 1003.2 |
| 20260509103510 | 44 | 321 | 2.0 | 8.0 | 0.00 | 0.00 | 0.00 | 62 | 1003.1 |
| 20260509103027 | 44 | 201 | 2.0 | 8.0 | 0.00 | 0.00 | 0.00 | 63 | 1003.3 |
| 20260509102511 | 43 | 226 | 1.0 | 3.0 | 0.00 | 0.00 | 0.00 | 62 | 1002.5 |
| 20260509102010 | 43 | 233 | 1.0 | 3.0 | 0.00 | 0.00 | 0.00 | 62 | 1002.3 |
| 20260509101534 | 43 | 196 | 0.0 | 2.0 | 0.00 | 0.00 | 0.00 | 61 | 1002.3 |
| 20260509101003 | 43 | 260 | 0.0 | 2.0 | 0.00 | 0.00 | 0.00 | 59 | 1002.3 |
| 20260509100503 | 43 | 19 | 0.0 | 1.0 | 0.00 | 0.00 | 0.00 | 59 | 1002.2 |
| 20260509100009 | 43 | 19 | 0.0 | 1.0 | 0.00 | 0.00 | 0.00 | 58 | 1002.2 |
| 20260509095504 | 43 | 19 | 0.0 | 0.0 | 0.00 | 0.00 | 0.00 | 57 | 1002.3 |
| 20260509095004 | 43 | 19 | 0.0 | 0.0 | 0.00 | 0.00 | 0.00 | 57 | 1002.3 |
| 20260509094510 | 43 | 19 | 0.0 | 0.0 | 0.00 | 0.00 | 0.00 | 57 | 1002.2 |
| 20260509094003 | 44 | 19 | 0.0 | 0.0 | 0.00 | 0.00 | 0.00 | 57 | 1002.4 |
| 20260509093504 | 44 | 19 | 0.0 | 0.0 | 0.00 | 0.00 | 0.00 | 56 | 1002.4 |
| 20260509093004 | 44 | 19 | 0.0 | 0.0 | 0.00 | 0.00 | 0.00 | 56 | 1002.4 |
| 20260509092504 | 44 | 19 | 0.0 | 0.0 | 0.00 | 0.00 | 0.00 | 56 | 1002.5 |
| 20260509092003 | 44 | 19 | 0.0 | 0.0 | 0.00 | 0.00 | 0.00 | 56 | 1002.5 |
| 20260509091503 | 44 | 19 | 0.0 | 0.0 | 0.00 | 0.00 | 0.00 | 56 | 1002.5 |
| 20260509091003 | 44 | 19 | 0.0 | 0.0 | 0.00 | 0.00 | 0.00 | 56 | 1002.4 |
| 20260509090503 | 45 | 19 | 0.0 | 0.0 | 0.00 | 0.00 | 0.00 | 56 | 1002.5 |
| 20260509090004 | 45 | 19 | 0.0 | 0.0 | 0.00 | 0.00 | 0.00 | 57 | 1002.6 |
| 20260509085503 | 45 | 19 | 0.0 | 0.0 | 0.00 | 0.00 | 0.00 | 56 | 1002.6 |
| 20260509085003 | 45 | 19 | 0.0 | 1.0 | 0.00 | 0.00 | 0.00 | 56 | 1002.6 |
| 20260509084510 | 45 | 19 | 0.0 | 1.0 | 0.00 | 0.00 | 0.00 | 56 | 1002.5 |
| 20260509084003 | 45 | 19 | 0.0 | 1.0 | 0.00 | 0.00 | 0.00 | 55 | 1002.4 |
| 20260509083506 | 46 | 19 | 0.0 | 1.0 | 0.00 | 0.00 | 0.00 | 54 | 1002.4 |
| 20260509083005 | 46 | 19 | 0.0 | 0.0 | 0.00 | 0.00 | 0.00 | 53 | 1002.4 |
| 20260509082505 | 46 | 19 | 0.0 | 0.0 | 0.00 | 0.00 | 0.00 | 52 | 1002.2 |
| 20260509082003 | 47 | 19 | 0.0 | 0.0 | 0.00 | 0.00 | 0.00 | 51 | 1002.2 |
| 20260509081504 | 47 | 19 | 0.0 | 0.0 | 0.00 | 0.00 | 0.00 | 50 | 1002.2 |
| 20260509081004 | 47 | 19 | 0.0 | 0.0 | 0.00 | 0.00 | 0.00 | 50 | 1002.3 |
| 20260509080503 | 48 | 19 | 0.0 | 0.0 | 0.00 | 0.00 | 0.00 | 49 | 1002.4 |
| 20260509080001 | 48 | 19 | 0.0 | 0.0 | 0.00 | 0.00 | 0.00 | 49 | 1002.4 |
| 20260509075501 | 48 | 19 | 0.0 | 0.0 | 0.00 | 0.00 | 0.00 | 48 | 1002.4 |
| 20260509075001 | 49 | 19 | 0.0 | 0.0 | 0.00 | 0.00 | 0.00 | 48 | 1002.5 |
| 20260509074506 | 49 | 19 | 0.0 | 0.0 | 0.00 | 0.00 | 0.00 | 48 | 1002.5 |
| 20260509074003 | 50 | 19 | 0.0 | 0.0 | 0.00 | 0.00 | 0.00 | 46 | 1002.4 |
| 20260509073502 | 50 | 19 | 0.0 | 0.0 | 0.00 | 0.00 | 0.00 | 46 | 1002.6 |
| 20260509073003 | 50 | 19 | 0.0 | 0.0 | 0.00 | 0.00 | 0.00 | 44 | 1002.6 |
| 20260509072502 | 51 | 19 | 0.0 | 0.0 | 0.00 | 0.00 | 0.00 | 44 | 1002.8 |
| 20260509072001 | 51 | 19 | 0.0 | 0.0 | 0.00 | 0.00 | 0.00 | 44 | 1002.7 |
| 20260509071502 | 52 | 19 | 0.0 | 0.0 | 0.00 | 0.00 | 0.00 | 43 | 1002.7 |
| 20260509071002 | 52 | 19 | 0.0 | 0.0 | 0.00 | 0.00 | 0.00 | 43 | 1002.8 |
| 20260509070504 | 53 | 19 | 0.0 | 0.0 | 0.00 | 0.00 | 0.00 | 42 | 1002.8 |
| 20260509070003 | 53 | 19 | 0.0 | 0.0 | 0.00 | 0.00 | 0.00 | 41 | 1002.9 |
| 20260509065502 | 54 | 19 | 0.0 | 0.0 | 0.00 | 0.00 | 0.00 | 40 | 1002.9 |
| 20260509065001 | 54 | 19 | 0.0 | 0.0 | 0.00 | 0.00 | 0.00 | 39 | 1003.0 |
| 20260509064506 | 54 | 19 | 0.0 | 0.0 | 0.00 | 0.00 | 0.00 | 39 | 1002.9 |
| 20260509064005 | 55 | 19 | 0.0 | 0.0 | 0.00 | 0.00 | 0.00 | 39 | 1003.1 |
| 20260509063503 | 55 | 19 | 0.0 | 0.0 | 0.00 | 0.00 | 0.00 | 38 | 1003.1 |
| 20260509063005 | 55 | 19 | 0.0 | 0.0 | 0.00 | 0.00 | 0.00 | 38 | 1003.1 |
| 20260509062503 | 56 | 19 | 0.0 | 1.0 | 0.00 | 0.00 | 0.00 | 38 | 1003.1 |
| 20260509062005 | 56 | 19 | 0.0 | 1.0 | 0.00 | 0.00 | 0.00 | 38 | 1003.1 |
| 20260509061502 | 56 | 19 | 0.0 | 2.0 | 0.00 | 0.00 | 0.00 | 37 | 1003.1 |
| 20260509061003 | 56 | 19 | 0.0 | 2.0 | 0.00 | 0.00 | 0.00 | 37 | 1003.2 |
| 20260509060502 | 56 | 255 | 0.0 | 5.0 | 0.00 | 0.00 | 0.00 | 37 | 1003.3 |
| 20260509060006 | 56 | 327 | 1.0 | 5.0 | 0.00 | 0.00 | 0.00 | 37 | 1003.3 |
| 20260509055501 | 56 | 61 | 1.0 | 5.0 | 0.00 | 0.00 | 0.00 | 37 | 1003.3 |
| 20260509055003 | 57 | 340 | 1.0 | 7.0 | 0.00 | 0.00 | 0.00 | 37 | 1003.3 |
| 20260509054503 | 57 | 346 | 1.0 | 7.0 | 0.00 | 0.00 | 0.00 | 37 | 1003.2 |
| 20260509054005 | 57 | 269 | 1.0 | 7.0 | 0.00 | 0.00 | 0.00 | 37 | 1003.2 |
| 20260509053506 | 57 | 352 | 1.0 | 7.0 | 0.00 | 0.00 | 0.00 | 37 | 1003.2 |
| 20260509053006 | 57 | 346 | 2.0 | 7.0 | 0.00 | 0.00 | 0.00 | 37 | 1003.2 |
| 20260509052504 | 57 | 324 | 1.0 | 7.0 | 0.00 | 0.00 | 0.00 | 37 | 1003.2 |
| 20260509052004 | 57 | 352 | 2.0 | 7.0 | 0.00 | 0.00 | 0.00 | 37 | 1003.2 |
| 20260509051506 | 57 | 63 | 2.0 | 7.0 | 0.00 | 0.00 | 0.00 | 38 | 1003.3 |
| 20260509051003 | 57 | 321 | 2.0 | 9.0 | 0.00 | 0.00 | 0.00 | 37 | 1003.2 |
| 20260509050504 | 57 | 297 | 2.0 | 9.0 | 0.00 | 0.00 | 0.00 | 38 | 1003.2 |
| 20260509050005 | 57 | 360 | 2.0 | 7.0 | 0.00 | 0.00 | 0.00 | 38 | 1003.1 |
| 20260509045505 | 57 | 25 | 0.0 | 2.0 | 0.00 | 0.00 | 0.00 | 37 | 1003.2 |
| 20260509045005 | 57 | 298 | 0.0 | 2.0 | 0.00 | 0.00 | 0.00 | 37 | 1003.2 |
| 20260509044510 | 57 | 282 | 0.0 | 3.0 | 0.00 | 0.00 | 0.00 | 37 | 1003.2 |
| 20260509044002 | 57 | 300 | 0.0 | 3.0 | 0.00 | 0.00 | 0.00 | 37 | 1003.2 |
| 20260509043502 | 58 | 54 | 0.0 | 3.0 | 0.00 | 0.00 | 0.00 | 37 | 1003.2 |
| 20260509043009 | 58 | 28 | 0.0 | 4.0 | 0.00 | 0.00 | 0.00 | 37 | 1003.1 |
| 20260509042503 | 58 | 28 | 0.0 | 4.0 | 0.00 | 0.00 | 0.00 | 36 | 1003.1 |
| 20260509042002 | 58 | 292 | 0.0 | 3.0 | 0.00 | 0.00 | 0.00 | 36 | 1003.1 |
| 20260509041508 | 58 | 342 | 0.0 | 4.0 | 0.00 | 0.00 | 0.00 | 36 | 1003.1 |
| 20260509041005 | 58 | 56 | 0.0 | 4.0 | 0.00 | 0.00 | 0.00 | 36 | 1003.1 |
| 20260509040505 | 58 | 191 | 0.0 | 4.0 | 0.00 | 0.00 | 0.00 | 36 | 1003.1 |
| 20260509040008 | 58 | 261 | 0.0 | 5.0 | 0.00 | 0.00 | 0.00 | 37 | 1003.1 |
| 20260509035510 | 58 | 215 | 1.0 | 5.0 | 0.00 | 0.00 | 0.00 | 37 | 1003.1 |
| 20260509035004 | 57 | 244 | 2.0 | 5.0 | 0.00 | 0.00 | 0.00 | 37 | 1003.0 |
| 20260509034533 | 57 | 298 | 1.0 | 5.0 | 0.00 | 0.00 | 0.00 | 37 | 1003.0 |
| 20260509034006 | 58 | 350 | 0.0 | 2.0 | 0.00 | 0.00 | 0.00 | 37 | 1002.9 |
| 20260509033503 | 58 | 292 | 0.0 | 4.0 | 0.00 | 0.00 | 0.00 | 37 | 1003.0 |
| 20260509033012 | 58 | 298 | 0.0 | 4.0 | 0.00 | 0.00 | 0.00 | 37 | 1002.8 |
| 20260509032505 | 58 | 217 | 0.0 | 2.0 | 0.00 | 0.00 | 0.00 | 36 | 1002.9 |
| 20260509032010 | 58 | 232 | 0.0 | 1.0 | 0.00 | 0.00 | 0.00 | 36 | 1002.8 |
| 20260509031512 | 59 | 232 | 0.0 | 1.0 | 0.00 | 0.00 | 0.00 | 36 | 1002.7 |
| 20260509031006 | 59 | 250 | 0.0 | 1.0 | 0.00 | 0.00 | 0.00 | 36 | 1002.6 |
| 20260509030507 | 59 | 250 | 0.0 | 1.0 | 0.00 | 0.00 | 0.00 | 35 | 1002.6 |
| 20260509030012 | 59 | 250 | 0.0 | 1.0 | 0.00 | 0.00 | 0.00 | 35 | 1002.5 |
| 20260509025504 | 60 | 250 | 0.0 | 1.0 | 0.00 | 0.00 | 0.00 | 35 | 1002.5 |
| 20260509025003 | 60 | 250 | 0.0 | 2.0 | 0.00 | 0.00 | 0.00 | 35 | 1002.5 |
| 20260509024509 | 60 | 304 | 0.0 | 2.0 | 0.00 | 0.00 | 0.00 | 35 | 1002.5 |
| 20260509024005 | 61 | 306 | 0.0 | 2.0 | 0.00 | 0.00 | 0.00 | 34 | 1002.4 |
| 20260509023504 | 61 | 325 | 0.0 | 2.0 | 0.00 | 0.00 | 0.00 | 34 | 1002.3 |
| 20260509023014 | 62 | 352 | 0.0 | 1.0 | 0.00 | 0.00 | 0.00 | 33 | 1002.3 |
| 20260509022503 | 62 | 352 | 0.0 | 1.0 | 0.00 | 0.00 | 0.00 | 32 | 1002.3 |
| 20260509022006 | 63 | 349 | 0.0 | 0.0 | 0.00 | 0.00 | 0.00 | 32 | 1002.2 |
| 20260509021520 | 63 | 349 | 0.0 | 0.0 | 0.00 | 0.00 | 0.00 | 32 | 1002.2 |
| 20260509021008 | 64 | 349 | 0.0 | 1.0 | 0.00 | 0.00 | 0.00 | 31 | 1002.2 |
| 20260509020509 | 64 | 349 | 0.0 | 1.0 | 0.00 | 0.00 | 0.00 | 31 | 1002.1 |
| 20260509020011 | 65 | 349 | 0.0 | 2.0 | 0.00 | 0.00 | 0.00 | 31 | 1002.1 |
| 20260509015504 | 65 | 349 | 0.0 | 2.0 | 0.00 | 0.00 | 0.00 | 30 | 1002.0 |
| 20260509015008 | 65 | 289 | 0.0 | 1.0 | 0.00 | 0.00 | 0.00 | 30 | 1001.9 |
| 20260509014515 | 66 | 297 | 0.0 | 2.0 | 0.00 | 0.00 | 0.00 | 30 | 1001.8 |
| 20260509014004 | 66 | 285 | 0.0 | 2.0 | 0.00 | 0.00 | 0.00 | 30 | 1001.8 |
| 20260509013504 | 66 | 290 | 0.0 | 3.0 | 0.00 | 0.00 | 0.00 | 29 | 1001.8 |
| 20260509013016 | 66 | 285 | 0.0 | 4.0 | 0.00 | 0.00 | 0.00 | 29 | 1001.7 |
| 20260509012507 | 67 | 296 | 1.0 | 4.0 | 0.00 | 0.00 | 0.00 | 29 | 1001.7 |
| 20260509012004 | 67 | 15 | 0.0 | 4.0 | 0.00 | 0.00 | 0.00 | 29 | 1001.7 |
| 20260509011514 | 67 | 19 | 0.0 | 4.0 | 0.00 | 0.00 | 0.00 | 29 | 1001.7 |
| 20260509011003 | 67 | 316 | 0.0 | 4.0 | 0.00 | 0.00 | 0.00 | 29 | 1001.7 |
| 20260509010503 | 67 | 42 | 1.0 | 7.0 | 0.00 | 0.00 | 0.00 | 29 | 1001.7 |
| 20260509010015 | 67 | 103 | 0.0 | 7.0 | 0.00 | 0.00 | 0.00 | 30 | 1001.6 |
| 20260509005506 | 68 | 185 | 1.0 | 5.0 | 0.00 | 0.00 | 0.00 | 30 | 1001.6 |
| 20260509005003 | 68 | 11 | 0.0 | 3.0 | 0.00 | 0.00 | 0.00 | 30 | 1001.6 |
| 20260509004514 | 68 | 102 | 0.0 | 4.0 | 0.00 | 0.00 | 0.00 | 30 | 1001.6 |
| 20260509004008 | 68 | 248 | 1.0 | 4.0 | 0.00 | 0.00 | 0.00 | 30 | 1001.5 |
| 20260509003506 | 68 | 289 | 0.0 | 3.0 | 0.00 | 0.00 | 0.00 | 30 | 1001.5 |
| 20260509003016 | 68 | 82 | 0.0 | 4.0 | 0.00 | 0.00 | 0.00 | 30 | 1001.6 |
| 20260509002511 | 68 | 115 | 1.0 | 7.0 | 0.00 | 0.00 | 0.00 | 29 | 1001.6 |
| 20260509002006 | 68 | 204 | 2.0 | 7.0 | 0.00 | 0.00 | 0.00 | 29 | 1001.6 |
| 20260509001518 | 69 | 89 | 2.0 | 4.0 | 0.00 | 0.00 | 0.00 | 29 | 1001.6 |
| 20260509001008 | 69 | 257 | 1.0 | 11.0 | 0.00 | 0.00 | 0.00 | 29 | 1001.6 |
| 20260509000508 | 69 | 28 | 2.0 | 11.0 | 0.00 | 0.00 | 0.00 | 29 | 1001.7 |
| 20260509000015 | 69 | 193 | 4.0 | 9.0 | 0.00 | 0.00 | 0.00 | 29 | 1001.6 |
| 20260508235507 | 69 | 15 | 2.0 | 6.0 | 0.00 | 0.00 | 0.00 | 28 | 1001.9 |
| 20260508235008 | 69 | 291 | 1.0 | 7.0 | 0.00 | 0.00 | 0.00 | 27 | 1001.7 |
| 20260508234516 | 70 | 243 | 1.0 | 7.0 | 0.00 | 0.00 | 0.00 | 27 | 1001.7 |
| 20260508234008 | 70 | 113 | 1.0 | 6.0 | 0.00 | 0.00 | 0.00 | 27 | 1001.7 |
| 20260508233508 | 70 | 250 | 1.0 | 7.0 | 0.00 | 0.00 | 0.00 | 27 | 1001.7 |
| 20260508233017 | 70 | 350 | 2.0 | 7.0 | 0.00 | 0.00 | 0.00 | 27 | 1001.8 |
| 20260508232506 | 70 | 304 | 2.0 | 10.0 | 0.00 | 0.00 | 0.00 | 27 | 1001.9 |
| 20260508232010 | 70 | 209 | 1.0 | 12.0 | 0.00 | 0.00 | 0.00 | 27 | 1001.7 |
| 20260508231520 | 70 | 311 | 1.0 | 12.0 | 0.00 | 0.00 | 0.00 | 27 | 1001.8 |
| 20260508231006 | 70 | 352 | 2.0 | 9.0 | 0.00 | 0.00 | 0.00 | 27 | 1001.7 |
| 20260508230510 | 70 | 30 | 1.0 | 7.0 | 0.00 | 0.00 | 0.00 | 28 | 1001.9 |
| 20260508230019 | 71 | 284 | 1.0 | 10.0 | 0.00 | 0.00 | 0.00 | 27 | 1002.1 |
| 20260508225507 | 71 | 196 | 2.0 | 10.0 | 0.00 | 0.00 | 0.00 | 26 | 1002.0 |
| 20260508225008 | 71 | 203 | 2.0 | 12.0 | 0.00 | 0.00 | 0.00 | 25 | 1001.9 |
| 20260508224520 | 72 | 215 | 2.0 | 12.0 | 0.00 | 0.00 | 0.00 | 25 | 1002.1 |
| 20260508224009 | 72 | 309 | 2.0 | 11.0 | 0.00 | 0.00 | 0.00 | 24 | 1002.1 |
| 20260508223507 | 72 | 242 | 4.0 | 14.0 | 0.00 | 0.00 | 0.00 | 23 | 1002.1 |
| 20260508223031 | 73 | 128 | 3.0 | 14.0 | 0.00 | 0.00 | 0.00 | 21 | 1002.1 |
| 20260508222510 | 73 | 140 | 4.0 | 14.0 | 0.00 | 0.00 | 0.00 | 21 | 1002.1 |
| 20260508222008 | 73 | 235 | 2.0 | 11.0 | 0.00 | 0.00 | 0.00 | 22 | 1002.2 |
| 20260508221520 | 72 | 240 | 4.0 | 11.0 | 0.00 | 0.00 | 0.00 | 22 | 1002.3 |
| 20260508221007 | 72 | 210 | 2.0 | 11.0 | 0.00 | 0.00 | 0.00 | 23 | 1002.4 |
| 20260508220508 | 72 | 122 | 1.0 | 7.0 | 0.00 | 0.00 | 0.00 | 23 | 1002.5 |
| 20260508220026 | 72 | 229 | 2.0 | 7.0 | 0.00 | 0.00 | 0.00 | 23 | 1002.5 |
| 20260508215507 | 71 | 277 | 2.0 | 9.0 | 0.00 | 0.00 | 0.00 | 23 | 1002.7 |
| 20260508215007 | 71 | 211 | 2.0 | 9.0 | 0.00 | 0.00 | 0.00 | 22 | 1002.8 |
| 20260508214544 | 71 | 238 | 3.0 | 14.0 | 0.00 | 0.00 | 0.00 | 23 | 1002.8 |
| 20260508214009 | 70 | 232 | 3.0 | 14.0 | 0.00 | 0.00 | 0.00 | 23 | 1002.9 |
| 20260508213508 | 70 | 251 | 3.0 | 14.0 | 0.00 | 0.00 | 0.00 | 25 | 1002.9 |
| 20260508213023 | 70 | 224 | 1.0 | 6.0 | 0.00 | 0.00 | 0.00 | 23 | 1003.0 |
| 20260508212508 | 70 | 188 | 1.0 | 4.0 | 0.00 | 0.00 | 0.00 | 25 | 1003.1 |
| 20260508212009 | 70 | 269 | 1.0 | 4.0 | 0.00 | 0.00 | 0.00 | 24 | 1003.1 |
| 20260508211523 | 70 | 273 | 1.0 | 4.0 | 0.00 | 0.00 | 0.00 | 24 | 1003.2 |
| 20260508211014 | 70 | 174 | 2.0 | 10.0 | 0.00 | 0.00 | 0.00 | 25 | 1003.3 |
| 20260508210511 | 70 | 251 | 1.0 | 10.0 | 0.00 | 0.00 | 0.00 | 25 | 1003.4 |
| 20260508210026 | 70 | 15 | 1.0 | 8.0 | 0.00 | 0.00 | 0.00 | 25 | 1003.4 |
| 20260508205507 | 71 | 212 | 1.0 | 8.0 | 0.00 | 0.00 | 0.00 | 23 | 1003.6 |
| 20260508205012 | 72 | 206 | 1.0 | 7.0 | 0.00 | 0.00 | 0.00 | 23 | 1003.6 |
| 20260508204524 | 72 | 242 | 1.0 | 7.0 | 0.00 | 0.00 | 0.00 | 23 | 1003.6 |
| 20260508204007 | 73 | 214 | 2.0 | 7.0 | 0.00 | 0.00 | 0.00 | 23 | 1003.7 |
| 20260508203508 | 73 | 20 | 1.0 | 4.0 | 0.00 | 0.00 | 0.00 | 22 | 1003.7 |
| 20260508203023 | 72 | 350 | 1.0 | 6.0 | 0.00 | 0.00 | 0.00 | 25 | 1003.7 |
| 20260508202505 | 71 | 277 | 2.0 | 6.0 | 0.00 | 0.00 | 0.00 | 23 | 1003.8 |
| 20260508202002 | 71 | 90 | 2.0 | 8.0 | 0.00 | 0.00 | 0.00 | 25 | 1003.7 |
| 20260508201506 | 71 | 219 | 1.0 | 10.0 | 0.00 | 0.00 | 0.00 | 24 | 1003.9 |
| 20260508201005 | 71 | 341 | 0.0 | 10.0 | 0.00 | 0.00 | 0.00 | 25 | 1003.9 |
| 20260508200503 | 71 | 352 | 2.0 | 10.0 | 0.00 | 0.00 | 0.00 | 24 | 1004.0 |
| 20260508200005 | 71 | 292 | 1.0 | 11.0 | 0.00 | 0.00 | 0.00 | 23 | 1004.0 |
| 20260508195504 | 72 | 157 | 3.0 | 11.0 | 0.00 | 0.00 | 0.00 | 23 | 1004.0 |
| 20260508195003 | 72 | 197 | 2.0 | 9.0 | 0.00 | 0.00 | 0.00 | 25 | 1004.2 |
| 20260508194504 | 73 | 266 | 1.0 | 8.0 | 0.00 | 0.00 | 0.00 | 22 | 1004.2 |
| 20260508194004 | 73 | 97 | 2.0 | 8.0 | 0.00 | 0.00 | 0.00 | 24 | 1004.3 |
| 20260508193508 | 74 | 211 | 2.0 | 12.0 | 0.00 | 0.00 | 0.00 | 22 | 1004.5 |
| 20260508193016 | 74 | 240 | 0.0 | 12.0 | 0.00 | 0.00 | 0.00 | 21 | 1004.5 |
| 20260508192507 | 73 | 144 | 1.0 | 9.0 | 0.00 | 0.00 | 0.00 | 23 | 1004.5 |
| 20260508192009 | 74 | 58 | 1.0 | 9.0 | 0.00 | 0.00 | 0.00 | 23 | 1004.7 |
| 20260508191503 | 74 | 267 | 2.0 | 9.0 | 0.00 | 0.00 | 0.00 | 19 | 1004.8 |
| 20260508191003 | 74 | 284 | 2.0 | 9.0 | 0.00 | 0.00 | 0.00 | 21 | 1004.9 |
| 20260508190504 | 74 | 240 | 2.0 | 6.0 | 0.00 | 0.00 | 0.00 | 22 | 1004.9 |
| 20260508190012 | 74 | 144 | 1.0 | 7.0 | 0.00 | 0.00 | 0.00 | 23 | 1005.0 |
| 20260508185504 | 73 | 360 | 1.0 | 7.0 | 0.00 | 0.00 | 0.00 | 23 | 1005.0 |
| 20260508185005 | 73 | 352 | 0.0 | 12.0 | 0.00 | 0.00 | 0.00 | 22 | 1005.0 |
| 20260508184522 | 72 | 205 | 2.0 | 12.0 | 0.00 | 0.00 | 0.00 | 21 | 1005.1 |
| 20260508184007 | 72 | 81 | 4.0 | 12.0 | 0.00 | 0.00 | 0.00 | 21 | 1005.1 |
| 20260508183503 | 72 | 246 | 4.0 | 11.0 | 0.00 | 0.00 | 0.00 | 21 | 1005.1 |
| 20260508183012 | 72 | 200 | 4.0 | 10.0 | 0.00 | 0.00 | 0.00 | 22 | 1005.1 |
| 20260508182505 | 72 | 219 | 2.0 | 9.0 | 0.00 | 0.00 | 0.00 | 26 | 1005.2 |
| 20260508182009 | 72 | 240 | 3.0 | 9.0 | 0.00 | 0.00 | 0.00 | 22 | 1005.4 |
| 20260508181504 | 71 | 246 | 1.0 | 9.0 | 0.00 | 0.00 | 0.00 | 22 | 1005.6 |
| 20260508181004 | 71 | 194 | 2.0 | 9.0 | 0.00 | 0.00 | 0.00 | 21 | 1005.5 |
| 20260508180510 | 70 | 217 | 2.0 | 8.0 | 0.00 | 0.00 | 0.00 | 21 | 1005.6 |
| 20260508180004 | 70 | 232 | 1.0 | 7.0 | 0.00 | 0.00 | 0.00 | 24 | 1005.7 |
| 20260508175504 | 70 | 281 | 2.0 | 7.0 | 0.00 | 0.00 | 0.00 | 23 | 1005.9 |
| 20260508175004 | 71 | 254 | 1.0 | 7.0 | 0.00 | 0.00 | 0.00 | 22 | 1006.0 |
| 20260508174507 | 71 | 227 | 1.0 | 10.0 | 0.00 | 0.00 | 0.00 | 24 | 1006.1 |
| 20260508174002 | 71 | 234 | 2.0 | 12.0 | 0.00 | 0.00 | 0.00 | 23 | 1006.1 |
| 20260508173507 | 70 | 284 | 2.0 | 12.0 | 0.00 | 0.00 | 0.00 | 23 | 1006.2 |
| 20260508173013 | 69 | 225 | 3.0 | 11.0 | 0.00 | 0.00 | 0.00 | 26 | 1006.4 |
| 20260508172508 | 68 | 248 | 0.0 | 7.0 | 0.00 | 0.00 | 0.00 | 25 | 1006.4 |
| 20260508172003 | 68 | 184 | 3.0 | 6.0 | 0.00 | 0.00 | 0.00 | 26 | 1006.6 |
| 20260508171518 | 68 | 236 | 1.0 | 6.0 | 0.00 | 0.00 | 0.00 | 24 | 1006.7 |
| 20260508171016 | 69 | 267 | 2.0 | 9.0 | 0.00 | 0.00 | 0.00 | 25 | 1006.7 |
| 20260508170505 | 69 | 293 | 2.0 | 9.0 | 0.00 | 0.00 | 0.00 | 25 | 1006.8 |
| 20260508170011 | 68 | 221 | 3.0 | 11.0 | 0.00 | 0.00 | 0.00 | 26 | 1006.9 |
| 20260508165506 | 67 | 220 | 2.0 | 11.0 | 0.00 | 0.00 | 0.00 | 25 | 1006.9 |
| 20260508165012 | 68 | 205 | 3.0 | 11.0 | 0.00 | 0.00 | 0.00 | 25 | 1007.0 |
| 20260508164518 | 69 | 217 | 1.0 | 10.0 | 0.00 | 0.00 | 0.00 | 25 | 1007.1 |
| 20260508164007 | 69 | 5 | 3.0 | 11.0 | 0.00 | 0.00 | 0.00 | 24 | 1007.1 |
| 20260508163504 | 68 | 93 | 1.0 | 11.0 | 0.00 | 0.00 | 0.00 | 28 | 1007.1 |
| 20260508163014 | 67 | 215 | 2.0 | 9.0 | 0.00 | 0.00 | 0.00 | 26 | 1007.1 |
| 20260508162508 | 68 | 315 | 1.0 | 7.0 | 0.00 | 0.00 | 0.00 | 26 | 1007.2 |
| 20260508162007 | 67 | 168 | 0.0 | 9.0 | 0.00 | 0.00 | 0.00 | 28 | 1007.3 |
| 20260508161513 | 65 | 184 | 3.0 | 11.0 | 0.00 | 0.00 | 0.00 | 28 | 1007.3 |
| 20260508161004 | 64 | 272 | 4.0 | 13.0 | 0.00 | 0.00 | 0.00 | 28 | 1007.3 |
| 20260508160510 | 64 | 227 | 6.0 | 13.0 | 0.00 | 0.00 | 0.00 | 26 | 1007.4 |
| 20260508160019 | 64 | 176 | 5.0 | 12.0 | 0.00 | 0.00 | 0.00 | 27 | 1007.4 |
| 20260508155509 | 65 | 168 | 4.0 | 12.0 | 0.00 | 0.00 | 0.00 | 28 | 1007.4 |
| 20260508155003 | 64 | 253 | 2.0 | 11.0 | 0.00 | 0.00 | 0.00 | 28 | 1007.4 |
| 20260508154518 | 64 | 192 | 5.0 | 11.0 | 0.00 | 0.00 | 0.00 | 28 | 1007.5 |
| 20260508154009 | 64 | 243 | 3.0 | 8.0 | 0.00 | 0.00 | 0.00 | 27 | 1007.5 |
| 20260508153505 | 63 | 211 | 2.0 | 9.0 | 0.00 | 0.00 | 0.00 | 31 | 1007.6 |
| 20260508153027 | 62 | 143 | 2.0 | 9.0 | 0.00 | 0.00 | 0.00 | 29 | 1007.7 |